Weather History for Buffalo, WY

Change the Weather History Date:

Tuesday, October 29, 2013

  Actual Average Record
Temperature  
Mean Temperature 28 °F 42 °F  
Max Temperature 30 °F 53 °F 73 °F (2008)
Min Temperature 25 °F 30 °F 9 °F (2002)
Degree Days  
Heating Degree Days 37 23  
Month to date heating degree days 634 544  
Since 1 July heating degree days 786 858  
Cooling Degree Days 0 0  
Month to date cooling degree days 0 0  
Year to date cooling degree days 709 491  
Moisture  
Dew Point 25 °F    
Average Humidity 89    
Maximum Humidity 100    
Minimum Humidity 78    
Precipitation  
Precipitation 0.01 in 0.01 in 0.16 in (2003)
Month to date precipitation 2.22 0.91  
Year to date precipitation 9.98 12.49  
Sea Level Pressure  
Sea Level Pressure 30.01 in    
Wind  
Wind Speed 8 mph (SSE)    
Max Wind Speed 18 mph    
Max Gust Speed 23 mph    
Visibility 8 miles    
Events Fog    
T = Trace of Precipitation, MM = Missing Value Source: NWS Daily Summary

Daily Weather History Graph

Daily Weather History Graph

Search for Another Location

Airport:

Trip Planner

Search our weather history database for the weather conditions in past years. The results will help you decide how hot, cold, wet, or windy it might be!

Date:

Astronomy

Oct. 29, 2013 Rise Set
Actual Time 7:40 AM MDT 5:59 PM MDT
Civil Twilight 7:10 AM MDT 6:30 PM MDT
Nautical Twilight 6:36 AM MDT 7:04 PM MDT
Astronomical Twilight 6:02 AM MDT 7:37 PM MDT
Moon 2:22 AM MDT 3:25 PM MDT
Length of Visible Light 11h 19m
Length of Day
10h 19m
Waning Crescent, 24% of the Moon is Illuminated
Oct 29
Waning Crescent
Nov 3
New
Nov 9
First Quarter
Nov 17
Full
Nov 25
Last Quarter

Hourly Weather History & Observations

Time (MDT) Temp. Windchill Dew Point Humidity Pressure Visibility Wind Dir Wind Speed Gust Speed Precip Events Conditions
12:51 AM 24.8 °F 11.1 °F 21.2 °F 86% 30.04 in 8.0 mi SSE 18.4 mph - N/A   Overcast
12:53 AM 25.0 °F 12.2 °F 21.9 °F 88% 30.13 in 8.0 mi SSE 16.1 mph - N/A   Overcast
1:53 AM 25.0 °F 11.7 °F 21.9 °F 88% 30.12 in 10.0 mi South 17.3 mph - N/A   Overcast
2:53 AM 25.0 °F 13.6 °F 21.9 °F 88% 30.12 in 10.0 mi SSE 12.7 mph - N/A   Overcast
3:53 AM 25.0 °F 13.6 °F 21.9 °F 88% 30.10 in 10.0 mi SSE 12.7 mph - N/A   Overcast
4:53 AM 25.0 °F 13.6 °F 21.9 °F 88% 30.09 in 10.0 mi South 12.7 mph - N/A   Overcast
5:53 AM 25.0 °F 13.1 °F 21.9 °F 88% 30.09 in 10.0 mi South 13.8 mph - N/A   Overcast
6:53 AM 25.0 °F 13.1 °F 21.9 °F 88% 30.07 in 10.0 mi South 13.8 mph - N/A   Overcast
7:53 AM 25.0 °F 15.5 °F 21.9 °F 88% 30.08 in 10.0 mi South 9.2 mph - N/A   Overcast
8:53 AM 26.1 °F 16.2 °F 21.9 °F 84% 30.07 in 10.0 mi SSW 10.4 mph - N/A   Overcast
9:53 AM 26.1 °F 16.2 °F 23.0 °F 88% 30.08 in 10.0 mi SSW 10.4 mph - N/A   Overcast
10:53 AM 27.0 °F 16.7 °F 23.0 °F 85% 30.06 in 10.0 mi South 11.5 mph - N/A   Overcast
11:53 AM 28.0 °F 19.3 °F 25.0 °F 88% 30.05 in 10.0 mi SSW 9.2 mph - N/A   Overcast
12:29 PM 28.4 °F 21.2 °F 24.8 °F 86% 29.95 in 10.0 mi SSE 6.9 mph - N/A   Overcast
12:53 PM 28.9 °F 20.4 °F 24.1 °F 82% 30.05 in 10.0 mi SSE 9.2 mph - N/A   Overcast
1:53 PM 28.9 °F 23.9 °F 25.0 °F 85% 30.03 in 10.0 mi ESE 4.6 mph - N/A   Overcast
2:40 PM 28.4 °F 19.7 °F 24.8 °F 86% 29.93 in 10.0 mi South 9.2 mph - N/A   Overcast
2:53 PM 28.9 °F 21.9 °F 25.0 °F 85% 30.02 in 10.0 mi South 6.9 mph - N/A   Overcast
3:53 PM 28.9 °F - 25.0 °F 85% 29.99 in 10.0 mi Calm Calm - N/A   Overcast
4:53 PM 30.0 °F - 25.0 °F 82% 29.99 in 10.0 mi Calm Calm - N/A   Overcast
5:53 PM 30.0 °F - 25.0 °F 82% 29.99 in 10.0 mi Calm Calm - N/A   Overcast
6:53 PM 28.9 °F 25.2 °F 26.1 °F 89% 30.01 in 10.0 mi NW 3.5 mph - N/A   Overcast
7:53 PM 28.9 °F 25.2 °F 26.1 °F 89% 30.02 in 10.0 mi NW 3.5 mph - N/A   Overcast
8:36 PM 28.4 °F 24.6 °F 26.6 °F 93% 29.89 in 6.0 mi NNW 3.5 mph - N/A   Overcast
8:53 PM 28.9 °F - 27.0 °F 92% 29.98 in 5.0 mi Calm Calm - N/A   Overcast
9:12 PM 28.4 °F 24.6 °F 26.6 °F 93% 29.89 in 1.8 mi East 3.5 mph - N/A   Overcast
9:36 PM 28.4 °F - 26.6 °F 93% 29.88 in 1.0 mi Calm Calm - N/A   Mist
9:53 PM 28.9 °F - 27.0 °F 92% 29.97 in 0.5 mi Calm Calm - N/A Fog Light Freezing Fog
10:53 PM 28.9 °F 23.9 °F 27.0 °F 92% 29.97 in 0.2 mi SE 4.6 mph - N/A Fog Light Freezing Fog
11:35 PM 28.4 °F 24.6 °F 28.4 °F 100% 29.86 in 1.0 mi SE 3.5 mph - N/A   Mist
11:48 PM 30.2 °F - 28.4 °F 93% 29.86 in 0.5 mi Calm Calm - N/A Fog Light Freezing Fog
11:53 PM 28.9 °F 22.8 °F 28.0 °F 96% 29.94 in 0.5 mi SE 5.8 mph - N/A Fog Light Freezing Fog